Погода в Усть-Багаряке

Россия / Челябинская область     56°08′20″N   61°52′23″E
темп.,
°C
ветер,
м/с
пор.,
м/с
влажн.,
%
обл.,
%
осадки,
мм/ч
давл.,
гПа
погр.,
м
8 декабря, ср
ср823:00−15зсз47844 0.0 1036150
02:00−15зсз37885 0.0 1037127
05:00−15зсз378951 0.0 1039122
08:00−15зюз229399 0.0 103923
11:00−12зюз2385100 0.0 104097
14:00−10ю2383100 0.0 103968
17:00−12ю3784100 0.0 1039106
20:00−11ю4983100 0.0 1038176
9 декабря, чт
чт923:00−9ю4893100 0.4 1037202
02:00−8ю5987100 0.1 1036221
05:00−6ююз5985100 0.1 1035205
08:00−6ююз4886100 0.0 1035142
11:00−6ююз4784100 0.0 1035135
14:00−6ю4784100 0.0 1034140
17:00−8ю4886100 0.0 1034141
20:00−8ю51082100 0.0 1033183
10 декабря, пт
пт1023:00−7ю51278100 0.0 1031245
02:00−6ююз61370100 0.0 1030294
05:00−6ююз61468100 0.0 1029292
08:00−6ююз61370100 0.0 1027274
11:00−5ююз51172100 0.0 1026278
14:00−5ююз4777100 0.0 1026183
17:00−5ююз3584100 0.0 102681
20:00−5зсз2388100 0.0 102655
11 декабря, сб
сб1123:00−5сз3891100 0.0 1026208
02:00−7ссз41088100 0.0 1027297
05:00−11ссз498857 0.0 1029231
08:00−12ссз49865 0.0 1030204
11:00−12сз37865 0.0 1031176
14:00−9сз49792 0.0 1030286
17:00−10сз410845 0.0 1030218
20:00−11ссз511865 0.0 1031276
12 декабря, вс
вс1223:00−12ссз510885 0.0 1032257
02:00−12сз510875 0.0 1033250
05:00−12ссз510855 0.0 1035231
08:00−13сз38875 0.0 1036144
11:00−12зсз36865 0.0 1037127
14:00−9зсз368210 0.0 1036190
17:00−11зсз368737 0.0 103798
20:00−12з3687100 0.0 1038110